Location: Unspecified
(49.2170°N, 0.0000°E)
Time: 00:25:32
(UTC+00:00)

SR - Pass Details

Date: 27 January 2021
Orbit: 573 x 882 km, 66.7° (Epoch: 03 March)

Event Time Altitude Azimuth Distance (km) Brightness Sun altitude
Exits shadow 03:05:59 12° 60° (ENE) 2,167 ? -43.6°
Drops below altitude 10° 03:06:22 10° 58° (ENE) 2,284 ? -43.6°
Sets 03:09:17 0° 44° (NE) 3,274 ? -43.2°
